Вернуться в каталог

STARLINK-4353

АктивенСвязьSSO
NORAD 53214·PAYLOAD·🇺🇸 United States

Запущен Jul 22, 2022 с Vandenberg Space Force Base

Loading…

Ближайшие Пролёты (ближайшие 24 часа)

TLE

СвежийSource: CelesTrak SupGP

Эпоха: Sep 14, 2026, 14:12 UTC

1 53214C 22084AB  26257.59215278  .00064595  00000+0  20049-2 0  2574
2 53214  97.2837 312.4199 0001650 112.2830 163.6611 15.33409799    16

Отслеживайте STARLINK-4353 в реальном времени с AllMySat

Download on the App Store